Location: Aalen
(48.8330°N, 10.1000°E)
Time: 11:53:15
(UTC+02:00)

Vanguard 3 - Visible Passes

Search period start: 31 July 2021 00:00
Search period end: 10 August 2021 00:00
Orbit: 508 x 3261 km, 33.4° (Epoch: 30 July)

Date Brightness Start Highest point End Pass type
(mag) Time Alt. Az. Time Alt. Az. Time Alt. Az.
31 Jul 10.2 00:50:56 10° W 01:06:47 32° SSW 01:11:34 28° S visible
31 Jul 10.9 03:14:26 10° WSW 03:16:01 11° WSW 03:16:01 11° WSW visible
31 Jul 10.3 21:19:48 10° WSW 21:36:27 49° S 21:54:22 10° ESE visible
31 Jul 10.3 23:33:56 10° W 23:51:07 40° SSW 00:00:33 26° SSE visible
01 Aug 10.6 01:51:44 10° W 02:03:53 21° SW 02:04:59 21° SW visible
01 Aug 10.3 22:17:54 10° WSW 22:34:56 46° SSW 22:49:33 16° SE visible
02 Aug 10.4 00:33:24 10° W 00:48:51 30° SW 00:54:01 27° S visible
02 Aug 10.4 21:02:38 10° WSW 21:18:32 48° S 21:36:44 10° ESE visible
02 Aug 10.4 23:16:33 10° W 23:33:09 39° SSW 23:43:05 24° SSE visible
03 Aug 10.7 01:34:31 10° W 01:45:58 19° SW 01:47:33 19° SW visible
03 Aug 10.4 22:00:41 10° WSW 22:16:59 45° SSW 22:32:13 15° SE visible
04 Aug 10.5 00:16:03 10° W 00:30:52 28° SW 00:36:41 24° SSW visible
04 Aug 10.5 22:59:19 10° W 23:15:10 36° SSW 23:25:52 22° SSE visible
05 Aug 10.9 01:17:38 10° W 01:28:01 17° SW 01:30:20 17° SW visible
05 Aug 10.5 21:43:39 10° WSW 21:59:04 43° SSW 22:15:05 13° SE visible
05 Aug 10.7 23:58:56 10° W 00:12:53 26° SW 00:19:33 21° S visible
06 Aug 10.6 22:42:16 10° W 22:57:12 34° SSW 23:08:50 19° SSE visible
07 Aug 11.0 01:01:14 10° WSW 01:10:04 15° SW 01:13:19 14° SW visible
07 Aug 10.5 21:26:46 10° WSW 21:41:13 40° SSW 21:58:09 11° SE visible
07 Aug 10.8 23:42:04 10° W 23:54:56 23° SW 00:02:39 18° S visible
08 Aug 10.7 22:25:25 10° W 22:39:19 31° SSW 22:52:02 16° SSE visible
09 Aug 11.1 00:45:39 10° WSW 00:52:09 13° SW 00:56:32 11° SW visible
09 Aug 10.6 21:10:02 10° WSW 21:23:26 37° SSW 21:40:20 10° SE visible
09 Aug 11.0 23:25:30 10° WSW 23:37:02 21° SW 23:45:59 15° S visible
